SCP
0 0 0 0 0 0 0 0 0 0 0 0 0 0 0 0 0 0 0 0 0 0 0 0 0 0 0 0 0 0 0 0 0 0 0 0 0 0 0 0 0 0 0
0 0 0 0 0 0 0 0 0 0 0 0 0 0 0 0 0 0 0 0 0 0 0 0 0 0 0 0 0 0 0 0 0 0 0 0 0 0 0 0 0 0 0
0 0 0 0 0 0 0 0 0 0 0 0 0 0 0 0 0 0 0 0 0 0 0 0 0 0 0 0 0 0 0 0 0 0 0 0 0 0 0 0 0 0 0
0 0 0 0 0 0 0 0 0 0 0 0 0 0 0 0 0 0 0 0 0 0 0 0 0 0 0 0 0 0 0 0 0 0 0 0 0 0 0 0 0 0 0
0 0 0 0 0 0 0 0 0 0 0 0 0 0 0 0 0 0 0 0 0 0 0 0 0 0 0 0 0 0 0 0 0 0 0 0 0 0 0 0 0 0 0
0 0 0 0 0 0 0 0 0 0 0 0 0 0 0 0 0 0 0 0 0 0 0 0 0 0 0 0 0 0 0 0 0 0 0 0 0 0 0 0 0 0 0
0 0 0 0 0 0 0 0 0 0 0 0 0 0 0 0 0 0 0 0 0 0 0 0 0 0 0 0 0 0 0 0 0 0 0 0 0 0 0 0 0 0 0
0 0 0 0 0 0 0 0 0 0 0 0 0 0 0 0 0 0 0 0 0 0 0 0 0 0 0 0 0 0 0 0 0 0 0 0 0 0 0 0 0 0 0
0 0 0 0 0 0 0 0 0 0 0 0 0 0 0 0 0 0 0 0 0 0 0 0 0 0 0 0 0 0 0 0 0 0 0 0 0 0 0 0 0 0 0
0 0 0 0 0 0 0 0 0 0 0 0 0 0 0 0 0 0 0 0 0 0 0 0 0 0 0 0 0 0 0 0 0 0 0 0 0 0 0 0 0 0 0
0 0 0 0 0 0 0 0 0 0 0 0 0 0 0 0 0 0 0 0 0 0 0 0 0 0 0 0 0 0 0 0 0 0 0 0 0 0 0 0 0 0 0
0 0 0 0 0 0 0 0 0 0 0 0 0 0 0 0 0 0 0 0 0 0 0 0 0 0 0 0 0 0 0 0 0 0 0 0 0 0 0 0 0 0 0
0 0 0 0 0 0 0 0 0 0 0 0 0 0 0 0 0 0 0 0 0 0 0 0 0 0 0 0 0 0 0 0 0 0 0 0 0 0 0 0 0 0 0
0 0 0 0 0 0 0 0 0 0 0 0 0 0 0 0 0 0 0 0 0 0 0 0 0 0 0 0 0 0 0 0 0 0 0 0 0 0 0 0 0 0 0
0 0 0 0 0 0 0 0 0 0 0 0 0 0 0 0 0 0 0 0 0 0 0 0 0 0 0 0 0 0 0 0 0 0 0 0 0 0 0 0 0 0 0
0 0 0 0 0 0 0 0 0 0 0 0 0 0 0 0 0 0 0 0 0 0 0 0 0 0 0 0 0 0 0 0 0 0 0 0 0 0 0 0 0 0 0
0 0 0 0 0 0 0 0 0 0 0 0 0 0 0 0 0 0 0 0 0 0 0 0 0 0 0 0 0 0 0 0 0 0 0 0 0 0 0 0 0 0 0
0 0 0 0 0 0 0 0 0 0 0 0 0 0 0 0 0 0 0 0 0 0 0 0 0 0 0 0 0 0 0 0 0 0 0 0 0 0 0 0 0 0 0
0 0 0 0 0 0 0 0 0 0 0 0 0 0 0 0 0 0 0 0 0 0 0 0 0 0 0 0 0 0 0 0 0 0 0 0 0 0 0 0 0 0 0
0 0 0 0 0 0 0 0 0 0 0 0 0 0 0 0 0 0 0 0 0 0 0 0 0 0 0 0 0 0 0 0 0 0 0 0 0 0 0 0 0 0 0
0 0 0 0 0 0 0 0 0 0 0 0 0 0 0 0 0 0 0 0 0 0 0 0 0 0 0 0 0 0 0 0 0 0 0 0 0 0 0 0 0 0 0
0 0 0 0 0 0 0 0 0 0 0 0 0 0 0 0 0 0 0 0 0 0 0 0 0 0 0 0 0 0 0 0 0 0 0 0 0 0 0 0 0 0 0
0 0 0 0 0 0 0 0 0 0 0 0 0 0 0 0 0 0 0 0 0 0 0 0 0 0 0 0 0 0 0 0 0 0 0 0 0 0 0 0 0 0 0
0 0 0 0 0 0 0 0 0 0 0 0 0 0 0 0 0 0 0 0 0 0 0 0 0 0 0 0 0 0 0 0 0 0 0 0 0 0 0 0 0 0 0
0 0 0 0 0 0 0 0 0 0 0 0 0 0 0 0 0 0 0 0 0 0 0 0 0 0 0 0 0 0 0 0 0 0 0 0 0 0 0 0 0 0 0
0 0 0 0 0 0 0 0 0 0 0 0 0 0 0 0 0 0 0 0 0 0 0 0 0 0 0 0 0 0 0 0 0 0 0 0 0 0 0 0 0 0 0
Wind_Speed
3 4 9 9 9 8 9 9 9 8 8 8 8 9 9 9 9 9 9 9 8 7 8 8 8 8 8 8 8 8 8 8 8 7 7 7 8 8 8 8 7 5 8
6 5 10 10 9 9 8 8 8 8 8 8 8 8 8 8 8 8 8 8 8 7 7 7 7 7 8 8 8 7 7 7 7 6 6 6 7 7 7 6 6 4 6
8 6 8 10 9 9 8 8 7 7 7 7 7 7 7 7 7 7 7 7 7 7 6 6 6 6 7 7 7 7 7 7 7 6 6 3 3 6 6 6 5 5 5
8 6 6 9 9 8 8 8 7 7 6 6 6 6 6 6 6 6 6 6 7 7 6 6 5 6 6 6 6 6 6 6 6 6 4 3 2 4 5 5 5 5 4
7 5 6 9 8 8 8 8 7 6 6 6 6 6 6 5 5 5 5 5 6 6 5 5 5 5 5 5 5 5 5 6 6 6 3 3 2 3 4 4 4 3 3
7 5 6 9 8 8 7 7 6 5 5 5 5 5 5 5 5 5 5 5 5 5 4 4 4 4 4 4 4 4 5 6 6 3 3 2 2 3 3 3 4 3 3
6 5 5 8 8 7 7 6 5 5 5 5 5 4 4 4 4 4 4 4 4 4 4 3 3 3 3 4 4 4 5 5 3 2 2 2 2 2 3 3 3 3 3
7 5 4 7 7 6 6 5 5 5 5 4 4 4 3 3 3 3 3 3 3 3 4 4 3 2 2 3 3 4 5 4 3 3 2 2 2 2 2 3 2 3 3
6 5 3 3 4 5 5 4 4 4 4 3 3 3 3 3 2 2 2 2 2 3 3 3 3 2 2 3 3 3 4 4 3 2 2 2 2 1 1 2 2 2 2
5 4 3 3 2 2 2 3 3 3 3 3 2 2 3 3 2 2 2 2 2 3 3 3 2 3 3 3 3 4 4 4 2 2 1 2 2 1 1 2 2 2 2
4 3 3 2 2 2 2 2 2 2 2 2 1 2 2 1 1 1 1 2 2 3 3 4 3 3 3 3 3 4 4 1 1 2 1 2 2 2 2 2 2 2 3
4 3 3 3 2 2 1 1 1 1 1 1 1 1 1 0 0 1 2 2 3 3 3 4 4 4 3 2 2 3 1 1 1 2 2 3 3 3 3 3 3 4 4
4 3 3 3 3 2 1 1 1 1 0 0 0 0 0 0 0 1 1 1 2 2 2 3 3 2 2 1 1 1 1 1 1 2 2 4 4 4 3 3 4 4 5
4 3 3 3 2 2 2 1 1 1 1 1 1 1 1 0 0 0 0 0 0 1 1 1 1 2 2 2 1 1 1 1 1 1 2 4 4 4 4 4 4 5 5
4 4 4 4 3 2 2 1 1 1 2 2 1 1 1 1 1 1 1 1 1 1 1 1 1 2 2 2 2 1 1 1 1 2 2 4 4 4 4 4 5 5 6
5 5 4 4 4 3 2 1 1 1 1 1 1 2 2 1 1 1 1 1 1 1 1 1 1 2 2 2 2 2 2 2 1 2 1 2 3 3 4 5 6 6 6
5 4 4 4 3 3 2 2 1 1 1 1 1 1 1 2 2 1 1 1 1 1 1 1 1 1 1 2 2 2 2 2 2 2 2 1 2 3 4 5 6 7 7
3 3 3 2 3 3 2 2 1 1 1 1 1 1 2 2 2 1 1 1 1 1 1 1 1 1 1 1 2 2 2 2 2 2 1 1 1 2 3 5 6 7 8
4 3 3 2 2 2 2 1 1 1 1 1 1 1 1 1 1 1 1 1 1 1 1 1 1 1 1 2 2 2 2 1 2 2 1 2 1 1 1 3 5 7 8
4 3 3 2 2 2 1 1 0 0 0 1 1 1 1 1 1 1 1 1 1 0 1 1 1 1 1 2 1 2 2 2 2 2 2 2 1 1 2 2 2 4 6
3 3 3 2 2 2 1 1 1 1 1 1 1 2 2 1 1 1 1 1 1 1 1 2 1 1 1 0 0 2 2 2 2 2 1 1 1 2 2 2 2 2 3
4 4 3 3 3 3 3 2 1 1 1 1 1 1 2 2 1 1 1 1 1 1 1 2 1 1 1 0 1 0 2 3 2 2 1 1 1 1 2 2 2 2 2
4 4 4 4 3 3 2 1 1 1 1 0 1 1 1 1 2 1 1 1 1 1 2 2 2 2 2 1 1 2 2 2 3 2 2 1 1 1 2 2 2 2 2
5 4 4 4 3 3 3 2 3 2 2 2 1 1 2 2 2 2 1 2 2 2 2 2 2 2 2 2 1 1 2 2 2 2 2 1 1 2 2 3 3 3 3
4 4 4 3 3 2 3 3 3 2 2 1 1 1 2 2 2 2 2 2 2 2 2 2 2 2 2 3 2 1 1 1 1 2 3 3 3 2 2 3 3 3 2
3 3 3 3 3 3 3 3 3 3 3 2 1 2 2 2 2 2 2 2 2 2 2 2 3 3 3 2 2 2 2 2 2 2 3 3 4 3 3 3 3 2 2
Wind_Direction
168 172 146 135 125 117 111 106 101 95 89 84 83 80 76 74 71 67 65 65 67 71 74 73 68 68 68 65 61 60 60 58 58 59 61 65 68 69 69 72 71 66 70
151 154 142 136 128 120 113 106 101 96 91 85 84 82 77 75 72 70 65 64 66 68 71 71 72 70 69 66 63 63 58 54 51 53 53 54 63 69 68 70 73 73 68
135 139 140 137 130 123 116 109 103 98 92 88 85 83 79 78 74 69 65 63 64 63 67 71 73 72 69 65 64 63 59 55 50 50 46 32 45 69 69 61 64 71 67
131 132 135 136 131 125 118 112 107 101 94 92 89 84 81 77 75 71 67 62 62 61 61 66 69 74 69 63 61 60 56 52 51 48 34 18 14 66 66 61 60 71 66
121 123 135 136 133 127 120 113 108 102 96 91 88 85 80 77 74 70 67 62 57 57 57 61 65 69 67 61 55 51 47 47 49 41 24 20 12 64 65 60 56 65 66
120 119 135 136 134 128 123 117 111 103 98 94 89 85 79 78 72 66 62 61 56 52 51 58 61 59 56 49 43 41 38 42 40 36 27 13 5 57 59 51 50 57 59
125 123 132 134 133 128 123 119 115 108 103 96 91 84 78 75 70 66 62 61 57 48 41 45 55 53 49 39 33 35 34 35 35 33 24 358 353 44 45 48 48 42 41
128 125 126 135 133 128 124 120 114 110 104 96 90 83 77 74 71 68 65 61 56 48 42 41 43 40 40 28 26 31 30 26 30 23 9 345 344 29 36 33 33 22 19
122 119 116 124 131 132 128 122 116 107 102 95 88 77 66 70 71 72 63 59 49 41 34 24 20 15 21 20 21 25 23 22 26 5 343 326 327 8 25 15 14 3 0
118 124 125 115 108 121 137 131 119 102 91 86 78 65 58 58 60 56 46 44 46 33 20 11 6 7 7 12 15 15 16 18 6 344 320 299 310 314 343 347 336 327 331
124 132 138 131 123 126 148 146 132 115 87 66 59 66 54 29 16 23 14 35 33 20 12 8 5 359 358 1 3 7 13 2 340 326 299 298 296 291 302 309 308 306 304
158 160 153 151 148 145 146 127 128 110 87 70 58 59 55 43 345 19 13 17 15 7 4 1 360 358 354 348 354 5 3 344 333 313 302 305 295 285 289 291 290 291 297
168 161 165 163 158 151 148 149 144 134 132 117 128 145 91 50 7 18 9 351 347 360 358 349 352 349 339 328 323 329 333 327 316 306 304 311 295 284 279 284 288 287 291
161 167 173 165 159 163 155 172 173 167 177 195 210 194 153 134 49 247 241 279 306 320 326 331 324 322 318 310 291 292 295 286 286 293 292 309 300 295 293 288 290 287 290
175 179 179 171 170 169 162 182 166 192 194 198 196 199 179 181 208 220 232 236 257 269 266 296 307 307 307 306 291 289 289 283 278 287 296 307 303 301 301 300 299 299 298
186 186 183 175 173 164 168 178 183 204 211 203 204 208 198 192 203 211 229 238 249 247 245 247 271 286 289 290 289 283 280 280 273 272 282 307 312 307 305 304 303 298 295
189 186 184 179 165 164 171 182 176 188 200 207 212 211 199 192 196 202 213 235 252 248 247 262 286 293 299 297 289 285 284 282 282 277 276 283 298 312 310 308 304 302 300
166 171 184 180 167 173 178 188 192 185 185 223 218 206 201 197 187 187 210 238 248 242 239 245 278 295 296 287 282 284 289 285 283 271 267 269 278 293 307 311 309 302 303
168 167 179 182 179 188 184 186 192 188 186 210 231 223 213 199 183 180 215 244 243 241 247 265 302 264 278 284 272 280 284 278 277 274 265 261 263 268 284 308 311 305 305
171 169 175 176 181 182 169 144 129 115 226 218 224 226 220 216 187 180 210 242 239 253 279 271 267 274 252 268 296 317 300 285 274 263 257 260 265 283 290 297 303 302 309
171 172 179 170 178 166 160 170 179 222 248 252 237 220 213 211 196 192 230 247 228 232 253 256 254 263 287 291 46 332 315 295 273 271 258 249 266 280 291 291 291 297 302
187 189 184 185 188 190 191 192 196 192 224 236 253 233 217 207 207 213 206 221 224 238 280 273 245 223 264 253 159 136 319 319 307 286 263 242 265 284 285 292 285 291 294
199 202 199 201 200 202 188 150 90 67 32 333 293 258 249 230 222 225 229 232 227 209 231 253 233 209 218 249 202 170 182 247 298 295 273 277 280 290 292 293 287 291 284
211 208 202 199 200 200 179 169 171 185 215 233 244 252 267 248 237 233 239 242 237 224 225 241 234 222 200 220 248 237 224 206 212 289 293 286 298 290 285 294 294 286 277
211 206 201 194 195 193 183 184 186 204 221 239 251 260 259 262 251 244 243 241 239 230 226 227 218 211 204 200 207 225 251 265 238 222 270 296 306 284 282 281 278 272 275
206 204 196 189 198 193 186 186 193 204 203 202 227 243 254 263 263 256 255 248 242 236 231 218 210 205 202 203 207 207 216 224 227 220 239 263 283 289 291 276 273 260 267